Location: Newark
(25.0000°N, 73.5000°E)
Time: 10:09:57
(UTC+00:00)

Tiros 1 despin weight - Visible Passes

Search period start: 01 March 2021 00:00
Search period end: 11 March 2021 00:00
Orbit: 593 x 642 km, 48.2° (Epoch: 28 February)

Date Brightness Start Highest point End Pass type
(mag) Time Alt. Az. Time Alt. Az. Time Alt. Az.
03 Mar ? 00:32:02 10° N 00:35:10 17° NNE 00:38:17 10° ENE visible
04 Mar ? 00:47:35 10° NNW 00:51:48 33° NE 00:56:00 10° ESE visible
04 Mar ? 23:24:11 10° N 23:26:05 12° NNE 23:28:01 10° NE visible
05 Mar ? 23:39:58 13° N 23:42:51 22° NE 23:46:31 10° E visible
06 Mar ? 23:56:11 17° NNW 23:59:25 44° NE 00:03:53 10° ESE visible
07 Mar ? 15:36:30 10° SW 15:36:43 11° SW 15:36:43 11° SW visible
07 Mar ? 22:35:29 13° NE 22:35:29 13° NE 22:36:38 10° ENE visible
08 Mar ? 00:12:34 20° NW 00:15:48 82° SW 00:20:28 10° SE visible
08 Mar ? 14:12:25 10° S 14:16:00 24° SE 14:16:28 24° ESE visible
08 Mar ? 15:53:16 10° WSW 15:53:36 12° WSW 15:53:36 12° WSW visible
08 Mar ? 22:52:01 24° ENE 22:52:01 24° ENE 22:54:34 10° E visible
09 Mar ? 00:29:08 17° WNW 00:32:02 34° SW 00:36:16 10° SSE visible
09 Mar ? 14:27:50 10° SSW 14:32:11 60° SE 14:33:19 44° ENE visible
09 Mar ? 23:08:43 36° ESE 23:08:43 36° ESE 23:11:37 10° SE visible
10 Mar ? 00:45:50 11° W 00:48:11 15° SW 00:50:45 10° SSW visible
10 Mar ? 14:44:10 10° WSW 14:48:31 56° NW 14:50:05 36° NNE visible
10 Mar ? 23:25:31 29° SSE 23:25:31 29° SSE 23:27:53 10° SSE visible
